sat.trackr.live / text

‹ back to catalog

HULIANWANG DIGUI-34

NORAD 64287 · 2025-121E

PAYLOAD ACTIVE UNKNOWN

§ Identity

Operator
Country
PRC
Launch date
2025-06-05
Launch site
TAISC
Launch vehicle
Mass (kg)
RCS (m²)

External: N2YO · Heavens-Above · Gunter

§ Orbital elements

Epoch: 2026-05-25T04:06:31.785408Z

Period
108.73 min
Inclination
86.5006°
Eccentricity
0.0001754
Mean motion
13.24408206 rev/d
Perigee alt
1,166.6 km
Apogee alt
1,169.3 km
Semi-major
7,546.1 km
B*
2.1854e-5
RAAN
21.2927°
Arg perigee
98.6727°
Mean anomaly
261.4606°
Rev number
4,711

§ Raw data

HULIANWANG DIGUI-341 64287U 25121E   26145.17120122  .00000024  00000+0  21854-4 0  99912 64287  86.5006  21.2927 0001754  98.6727 261.4606 13.24408206 47111

JSON: /api/v1/satellites/64287 · /tle

For live sub-satellite position, see the globe view (requires WebGL).

§ Visibility from observer

Set your observer location to see the next 7 days of passes ≥ 10°. The values pass through the URL so the page stays shareable.

No JS? Fill the form by hand. The geolocation button needs JavaScript.